Wetterdaten: aktuell Sonntag, 23.02.2020 01:25
Datum Zeit Temp 2m Temp 2m ob Temp 10cm Feuchte 2 m Regen Wind mittel Richtung Richtung Taupunkt Windben
23.02.2020 01:25 7,1 C 6,5 C 6,8 C 88 % 0,0 l/m 8,2 km/h S-SW 202 5,2 C 11,1 km/h
23.02.2020 01:20 7,1 C 6,5 C 6,7 C 88 % 0,0 l/m 7,4 km/h SW 225 5,2 C 12,4 km/h
23.02.2020 01:15 7,1 C 6,5 C 6,7 C 88 % 0,0 l/m 7,6 km/h SW 225 5,2 C 12,7 km/h
23.02.2020 01:10 7,1 C 6,5 C 6,7 C 88 % 0,0 l/m 7,1 km/h SW 225 5,2 C 8,7 km/h
23.02.2020 01:05 7,1 C 6,6 C 6,7 C 88 % 0,0 l/m 8,4 km/h W-SW 247 5,2 C 9,3 km/h
23.02.2020 01:00 7,1 C 6,6 C 6,7 C 87 % 0,7 l/m 8,0 km/h W-SW 247 5,1 C 8,0 km/h
23.02.2020 00:55 7,2 C 6,7 C 6,8 C 87 % 0,0 l/m 8,0 km/h W 270 5,2 C 4,0 km/h
23.02.2020 00:50 7,2 C 6,7 C 6,8 C 87 % 0,0 l/m 10,3 km/h W 270 5,2 C 11,4 km/h
23.02.2020 00:45 7,3 C 6,8 C 6,9 C 86 % 0,0 l/m 9,5 km/h W-SW 247 5,1 C 3,9 km/h
23.02.2020 00:40 7,3 C 6,8 C 6,9 C 86 % 0,0 l/m 8,9 km/h SW 225 5,1 C 16,3 km/h
23.02.2020 00:35 7,5 C 7,0 C 7,0 C 86 % 0,0 l/m 10,0 km/h W-SW 247 5,3 C 20,6 km/h
23.02.2020 00:30 7,5 C 7,1 C 7,1 C 85 % 0,0 l/m 9,7 km/h W-SW 247 5,1 C 12,2 km/h
23.02.2020 00:25 7,6 C 7,2 C 7,2 C 84 % 0,0 l/m 9,7 km/h W 270 5,1 C 9,8 km/h
23.02.2020 00:20 7,6 C 7,4 C 7,3 C 84 % 0,0 l/m 9,7 km/h W 270 5,1 C 24,9 km/h
23.02.2020 00:15 7,7 C 7,4 C 7,3 C 83 % 0,0 l/m 8,2 km/h W-SW 247 5,0 C 11,1 km/h
23.02.2020 00:10 7,6 C 7,3 C 7,3 C 83 % 0,0 l/m 8,4 km/h W 270 4,9 C 8,4 km/h
23.02.2020 00:05 7,6 C 7,3 C 7,3 C 83 % 0,0 l/m 8,4 km/h W 270 4,9 C 8,4 km/h
23.02.2020 00:00 7,6 C 7,3 C 7,3 C 83 % 0,0 l/m 8,5 km/h S-SO 157 4,9 C 7,4 km/h
22.02.2020 23:55 7,7 C 7,4 C 7,3 C 83 % 0,0 l/m 9,3 km/h W-SW 247 5,0 C 12,6 km/h
22.02.2020 23:50 7,7 C 7,4 C 7,3 C 83 % 0,0 l/m 9,8 km/h NW 315 5,0 C 7,6 km/h
22.02.2020 23:45 7,7 C 7,4 C 7,3 C 82 % 0,0 l/m 10,6 km/h NW 315 4,8 C 13,7 km/h
22.02.2020 23:40 7,7 C 7,5 C 7,4 C 82 % 0,0 l/m 9,0 km/h W 270 4,8 C 21,4 km/h
22.02.2020 23:35 7,8 C 7,6 C 7,4 C 82 % 0,0 l/m 7,4 km/h SW 225 4,9 C 7,6 km/h
22.02.2020 23:30 7,9 C 7,6 C 7,5 C 81 % 0,0 l/m 7,9 km/h W-SW 247 4,8 C 9,8 km/h
22.02.2020 23:25 7,9 C 7,8 C 7,6 C 81 % 0,0 l/m 9,7 km/h W-NW 292 4,8 C 12,2 km/h
22.02.2020 23:20 8,0 C 8,0 C 7,7 C 80 % 0,0 l/m 10,1 km/h W-SW 247 4,8 C 11,1 km/h
_ Min-Zeit 06:15 06:15 06:15 14:10 - 06:15 - - 06:15 04:00
Minimum _ 2,2 C 2,1 C 1,9 C 53 % - 1,0 km/h - - -0,5 C 0,0 km/h
_ Max-Zeit 13:10 13:00 13:05 01:05 01:00 14:15 - - 00:35 18:40
Maximum _ 10,3 C 11,2 C 10,1 C 88 % 0,7 l/m 15,6 km/h
SW
- - 5,3 C 35,1 km/h
SW
Durchschnitt _ 6,3 C 6,6 C 6,0 C 73 % #0,7 l/m 7,6 km/h W-SW - 1,7 C 11,1 km/h